N225NS MYNN-MYEH

Flight info

Callsign N225NS
Flight time 0h 26m
Altitude 7000
Route JAVIS2 JEDIK
Aircraft DA42/L-SBDGRY/S

Departure

Time 2026-05-06 17:08
Airport Lynden Pindling International Airport (MYNN)

Arrival

Time 2026-05-06 17:34
Airport North Eleuthera Airport (MYEH)
Time Latitude Longitude Altitude Speed Heading
2026-05-06 16:54 25.04564 -77.46367 11 ft 0 kts 347°
2026-05-06 17:02 25.04565 -77.46367 20 ft 2 kts 347°
2026-05-06 17:02 25.04539 -77.46345 11 ft 13 kts 198°
2026-05-06 17:02 25.04493 -77.46387 11 ft 1 kts 227°
2026-05-06 17:03 25.04475 -77.46407 11 ft 13 kts 224°
2026-05-06 17:03 25.04402 -77.46446 12 ft 16 kts 134°
2026-05-06 17:03 25.04317 -77.46348 11 ft 25 kts 134°
2026-05-06 17:03 25.04150 -77.46165 12 ft 40 kts 133°
2026-05-06 17:04 25.04024 -77.46023 12 ft 40 kts 133°
2026-05-06 17:04 25.03771 -77.45743 12 ft 37 kts 133°
2026-05-06 17:04 25.03652 -77.45611 12 ft 36 kts 135°
2026-05-06 17:04 25.03421 -77.45356 11 ft 35 kts 134°
2026-05-06 17:05 25.03264 -77.45190 12 ft 27 kts 155°
2026-05-06 17:05 25.03152 -77.45189 14 ft 23 kts 189°
2026-05-06 17:05 25.03124 -77.45282 15 ft 17 kts 316°
2026-05-06 17:05 25.03241 -77.45415 12 ft 45 kts 315°
2026-05-06 17:06 25.03565 -77.45776 14 ft 85 kts 315°
2026-05-06 17:06 25.04014 -77.46273 137 ft 94 kts 319°
2026-05-06 17:06 25.04501 -77.46649 325 ft 97 kts 37°
2026-05-06 17:06 25.04221 -77.46032 326 ft 127 kts 161°
2026-05-06 17:07 25.03499 -77.45355 233 ft 146 kts 126°
2026-05-06 17:07 25.02627 -77.45160 381 ft 144 kts 221°
2026-05-06 17:07 25.02613 -77.46141 391 ft 141 kts 317°
2026-05-06 17:07 25.03514 -77.46321 420 ft 141 kts 24°
2026-05-06 17:08 25.04023 -77.45475 490 ft 143 kts 92°
2026-05-06 17:08 25.03488 -77.44571 580 ft 143 kts 145°
2026-05-06 17:08 25.02555 -77.44175 613 ft 145 kts 192°
2026-05-06 17:08 25.01912 -77.44848 863 ft 131 kts 254°
2026-05-06 17:09 25.02015 -77.45840 875 ft 135 kts 304°
2026-05-06 17:09 25.02787 -77.46244 930 ft 135 kts 358°
2026-05-06 17:09 25.03474 -77.45666 830 ft 128 kts 97°
2026-05-06 17:09 25.03021 -77.45824 723 ft 134 kts 303°
2026-05-06 17:10 25.03916 -77.46319 523 ft 152 kts 333°
2026-05-06 17:10 25.04655 -77.47066 706 ft 141 kts 302°
2026-05-06 17:10 25.04757 -77.48039 926 ft 139 kts 267°
2026-05-06 17:10 25.04588 -77.49080 1066 ft 140 kts 255°
2026-05-06 17:11 25.04315 -77.50127 1152 ft 142 kts 255°
2026-05-06 17:11 25.04043 -77.51160 1276 ft 142 kts 253°
2026-05-06 17:11 25.03739 -77.52226 1325 ft 146 kts 252°
2026-05-06 17:11 25.03308 -77.53231 1444 ft 146 kts 238°
2026-05-06 17:12 25.02632 -77.54118 1389 ft 157 kts 224°
2026-05-06 17:12 25.01684 -77.54707 1451 ft 154 kts 188°
2026-05-06 17:12 25.00657 -77.54441 1335 ft 165 kts 145°
2026-05-06 17:12 25.00109 -77.53404 1440 ft 159 kts 99°
2026-05-06 17:13 24.99981 -77.52155 1279 ft 167 kts 91°
2026-05-06 17:13 25.00001 -77.50881 1153 ft 168 kts 84°
2026-05-06 17:13 25.00231 -77.49658 1190 ft 163 kts 69°
2026-05-06 17:13 25.00744 -77.48562 1261 ft 159 kts 56°
2026-05-06 17:14 25.01330 -77.47550 1354 ft 154 kts 54°
2026-05-06 17:14 25.01970 -77.46635 1420 ft 154 kts 49°
2026-05-06 17:14 25.02636 -77.45700 1438 ft 155 kts 52°
2026-05-06 17:14 25.03351 -77.44796 1579 ft 154 kts 44°
2026-05-06 17:15 25.04154 -77.43973 1453 ft 165 kts 43°
2026-05-06 17:15 25.04943 -77.43036 1390 ft 166 kts 50°
2026-05-06 17:15 25.05627 -77.42011 1360 ft 166 kts 53°
2026-05-06 17:15 25.06279 -77.40955 1331 ft 166 kts 55°
2026-05-06 17:16 25.06961 -77.39946 1260 ft 167 kts 51°
2026-05-06 17:16 25.07573 -77.38867 1288 ft 165 kts 63°
2026-05-06 17:16 25.08018 -77.37678 1184 ft 168 kts 69°
2026-05-06 17:16 25.08297 -77.36395 978 ft 177 kts 82°
2026-05-06 17:17 25.08549 -77.35061 799 ft 180 kts 73°
2026-05-06 17:17 25.08835 -77.33718 649 ft 176 kts 77°
2026-05-06 17:17 25.09173 -77.32462 613 ft 170 kts 67°
2026-05-06 17:17 25.09726 -77.31336 515 ft 168 kts 53°
2026-05-06 17:18 25.10718 -77.30675 417 ft 165 kts 16°
2026-05-06 17:18 25.11736 -77.30219 612 ft 151 kts 26°
2026-05-06 17:18 25.12656 -77.29743 817 ft 142 kts 24°
2026-05-06 17:18 25.13566 -77.29265 833 ft 148 kts 27°
2026-05-06 17:19 25.14491 -77.28715 856 ft 152 kts 27°
2026-05-06 17:19 25.15404 -77.28103 863 ft 156 kts 36°
2026-05-06 17:19 25.16197 -77.27280 858 ft 157 kts 47°
2026-05-06 17:19 25.16883 -77.26327 819 ft 158 kts 53°
2026-05-06 17:20 25.17514 -77.25320 778 ft 161 kts 55°
2026-05-06 17:20 25.18090 -77.24317 991 ft 148 kts 55°
2026-05-06 17:20 25.18691 -77.23396 1071 ft 150 kts 54°
2026-05-06 17:20 25.19254 -77.22399 994 ft 160 kts 58°
2026-05-06 17:21 25.19788 -77.21323 1027 ft 158 kts 65°
2026-05-06 17:21 25.20105 -77.20156 1062 ft 158 kts 78°
2026-05-06 17:21 25.20265 -77.18948 1069 ft 161 kts 83°
2026-05-06 17:21 25.20313 -77.17715 1065 ft 161 kts 88°
2026-05-06 17:22 25.20311 -77.16478 1047 ft 164 kts 88°
2026-05-06 17:22 25.20354 -77.15197 985 ft 166 kts 89°
2026-05-06 17:22 25.20350 -77.13927 959 ft 166 kts 89°
2026-05-06 17:22 25.20414 -77.12660 884 ft 168 kts 81°
2026-05-06 17:23 25.20696 -77.11414 871 ft 165 kts 70°
2026-05-06 17:23 25.21116 -77.10253 954 ft 158 kts 64°
2026-05-06 17:23 25.21594 -77.09188 1008 ft 156 kts 61°
2026-05-06 17:23 25.22117 -77.08151 1127 ft 152 kts 59°
2026-05-06 17:24 25.22660 -77.07136 1174 ft 154 kts 58°
2026-05-06 17:24 25.23224 -77.06117 1219 ft 155 kts 58°
2026-05-06 17:24 25.23799 -77.05110 1284 ft 155 kts 56°
2026-05-06 17:24 25.24404 -77.04132 1347 ft 155 kts 52°
2026-05-06 17:25 25.25143 -77.03236 1298 ft 161 kts 44°
2026-05-06 17:25 25.25947 -77.02415 1389 ft 156 kts 38°
2026-05-06 17:25 25.26810 -77.01671 1398 ft 159 kts 37°
2026-05-06 17:25 25.27679 -77.00906 1428 ft 159 kts 36°
2026-05-06 17:26 25.28575 -77.00212 1518 ft 156 kts 30°
2026-05-06 17:26 25.29476 -76.99543 1608 ft 154 kts 36°
2026-05-06 17:26 25.30306 -76.98808 1649 ft 156 kts 38°
2026-05-06 17:26 25.31136 -76.98005 1711 ft 156 kts 41°
2026-05-06 17:27 25.31896 -76.97156 1760 ft 156 kts 47°
2026-05-06 17:27 25.32590 -76.96237 1833 ft 156 kts 50°
2026-05-06 17:27 25.33291 -76.95324 1898 ft 156 kts 45°
2026-05-06 17:27 25.34139 -76.94554 1816 ft 164 kts 30°
2026-05-06 17:28 25.35107 -76.93892 1891 ft 159 kts 30°
2026-05-06 17:28 25.36011 -76.93202 1974 ft 158 kts 38°
2026-05-06 17:28 25.36852 -76.92428 1993 ft 159 kts 39°
2026-05-06 17:28 25.37699 -76.91655 2068 ft 157 kts 39°
2026-05-06 17:29 25.38519 -76.90848 2089 ft 159 kts 44°
2026-05-06 17:29 25.39273 -76.89898 1957 ft 168 kts 50°
2026-05-06 17:29 25.39963 -76.88856 1971 ft 166 kts 57°
2026-05-06 17:29 25.40522 -76.87745 1917 ft 169 kts 62°
2026-05-06 17:30 25.41051 -76.86568 1803 ft 172 kts 64°
2026-05-06 17:30 25.41543 -76.85378 1819 ft 168 kts 66°
2026-05-06 17:30 25.41995 -76.84182 1773 ft 169 kts 68°
2026-05-06 17:30 25.42423 -76.82987 1769 ft 167 kts 69°
2026-05-06 17:31 25.42824 -76.81771 1695 ft 169 kts 70°
2026-05-06 17:31 25.43225 -76.80565 1676 ft 168 kts 69°
2026-05-06 17:31 25.43637 -76.79360 1651 ft 167 kts 69°
2026-05-06 17:31 25.44059 -76.78142 1538 ft 171 kts 69°
2026-05-06 17:32 25.44490 -76.76893 1387 ft 175 kts 69°
2026-05-06 17:32 25.44918 -76.75628 1196 ft 174 kts 70°
2026-05-06 17:32 25.45311 -76.74478 1142 ft 150 kts 69°
2026-05-06 17:32 25.45645 -76.73553 965 ft 118 kts 67°
2026-05-06 17:33 25.45925 -76.72762 824 ft 104 kts 69°
2026-05-06 17:33 25.46171 -76.72037 716 ft 100 kts 70°
2026-05-06 17:33 25.46419 -76.71319 605 ft 99 kts 68°
2026-05-06 17:33 25.46674 -76.70613 476 ft 99 kts 68°
2026-05-06 17:34 25.46924 -76.69909 311 ft 96 kts 69°
2026-05-06 17:34 25.47165 -76.69240 123 ft 93 kts 68°
2026-05-06 17:34 25.47386 -76.68623 13 ft 69 kts 68°
2026-05-06 17:34 25.47523 -76.68254 9 ft 33 kts 68°
2026-05-06 17:35 25.47591 -76.68178 8 ft 6 kts 331°
2026-05-06 17:35 25.47639 -76.68174 7 ft 8 kts 66°
2026-05-06 17:35 25.47659 -76.68166 7 ft 0 kts 246°